Flag for Nepal Weather past 2 weeks in Pokhara, Nepal

Now
73 °F

Broken clouds.


Feels Like: 74 °F
Forecast: 65 / 78 °F
Wind: 6 mph from East

Location: Kathmandu Airport

Current Time: Jul 31, 2015 at 11:39:28 AM

Latest Report: Jul 31, 2015 at 10:35 AM


Visibility: 5 mi

Pressure: 29.86 "Hg (27.08 "Hg at 847m altitude)

Humidity: 78%

Dew point: 66 °F

Historic Weather in Pokhara — Graph

°F

Pokhara temperature yesterday

Maximum temperature yesterday: 84 °F (at 12:35 PM)
Minimum temperature yesterday: 66 °F (at 11:35 PM)
Average temperature yesterday: 72 °F

Past Weeks' High & Low Weather Summary

 TemperatureHumidityPressure
High86 °F (Jul 27, 1:35 PM)100% (Jul 17, 4:35 AM)29.98 "Hg (Jul 17, 4:35 AM)
Low66 °F (Jul 25, 7:35 PM)49% (Jul 27, 1:35 PM)29.68 "Hg (Jul 16, 2:35 PM)
Average74 °F84%29.83 "Hg
* Reported Jul 16 10:35 AM — Jul 31 10:35 AM, Pokhara, Weather by CustomWeather, © 2015

Note: Actual official high and low records may vary slightly from our data, if they occured in-between our weather recording intervals... More about our weather records

Advertising

Pokhara weather history for previous 24 hours

 ConditionsComfort  
Time TempWeatherWind HumidityBarometerVisibility
10:35 AM
Fri, Jul 31
73 °FBroken clouds.6 mph78%29.86 "Hg5 mi
9:35 AM72 °FBroken clouds.6 mph83%29.86 "Hg5 mi
8:35 AM70 °FBroken clouds.2 mph88%29.86 "Hg5 mi
7:35 AM66 °FBroken clouds.2 mph100%29.83 "Hg4 mi
6:35 AM66 °FLight rain. More clouds than sun.5 mph94%29.83 "Hg4 mi
5:35 AM66 °FRain. Passing clouds.No wind100%29.83 "Hg3 mi
3:35 AM68 °FPassing clouds.2 mph94%29.83 "Hg4 mi
2:35 AM68 °FPassing clouds.No wind94%29.83 "Hg4 mi
1:35 AM66 °FPartly cloudy.3 mph100%29.83 "Hg4 mi
12:35 AM66 °FPartly cloudy.No wind94%29.83 "Hg4 mi
11:35 PM
Thu, Jul 30
66 °FMostly cloudy.No wind100%29.86 "Hg4 mi
10:35 PM68 °FLight rain. Mostly cloudy.5 mph94%29.86 "Hg4 mi
9:35 PM68 °FLight rain. Partly cloudy.3 mph100%29.86 "Hg3 mi
8:35 PM68 °FRain. Partly cloudy.3 mph94%29.83 "Hg2 mi
7:35 PM68 °FHeavy rain. More clouds than sun.3 mph94%29.83 "Hg1 mi
6:35 PM68 °FLots of rain. More clouds than sun.8 mph94%29.77 "Hg1 mi
5:35 PM73 °FMore clouds than sun.2 mph89%29.77 "Hg5 mi
4:35 PM73 °FMore clouds than sun.5 mph89%29.77 "Hg4 mi
3:35 PM72 °FBroken clouds.7 mph94%29.77 "Hg4 mi
2:35 PM75 °FRain. Broken clouds.5 mph83%29.77 "Hg3 mi
1:35 PM79 °FRain. Broken clouds.16 mph70%29.77 "Hg4 mi
12:35 PM84 °FPassing clouds.8 mph58%29.77 "HgN/A
11:35 AM82 °FPassing clouds.5 mph66%29.80 "HgN/A
Weather by CustomWeather, © 2015

See weather overviewHow to use our weather pages